Location: Mountain Grove
(34.0887°N, 86.6172°W)
Time: 21:27:13
(UTC+00:00)

SPOT 5 - Pass Details

Date: 14 July 2020
Orbit: 622 x 816 km, 98.3° (Epoch: 08 August)

Event Time Altitude Azimuth Distance (km) Brightness Sun altitude
Exits shadow 03:41:55 85° 308° (NW) 723 2.8 -26.2°
Drops below altitude 10° 03:46:31 10° 347° (NNW) 2,142 6.2 -26.8°
Sets 03:48:42 0° 348° (NNW) 3,033 7.2 -27.0°
